Weather History for KHSP - September, 2012

Change the Weather History Date:

Monday, September 3, 2012

  Actual Average Record
Temperature  
Mean Temperature 65 °F -  
Max Temperature 66 °F 71 °F 82 °F (2002)
Min Temperature 64 °F 56 °F 55 °F (2006)
Growing Degree Days 15 (Base 50)    
Moisture  
Dew Point 66 °F    
Average Humidity 100    
Maximum Humidity 100    
Minimum Humidity 100    
Precipitation  
Precipitation 0.00 in - - ()
Sea Level Pressure  
Sea Level Pressure 30.19 in    
Wind  
Wind Speed 5 mph (SSE)    
Max Wind Speed 12 mph    
Max Gust Speed 18 mph    
Averages and records for this station are not official NWS values.
T = Trace of Precipitation, MM = Missing Value Source: NWS Daily Summary

Daily Weather History Graph

Daily Weather History Graph

Search for Another Location

Airport or City:

Trip Planner

Search our weather history database for the weather conditions in past years. The results will help you decide how hot, cold, wet, or windy it might be!

Date:

Astronomy

Sep. 03, 2012 Rise Set
Actual Time 6:51 AM EDT 7:45 PM EDT
Civil Twilight 6:24 AM EDT 8:11 PM EDT
Nautical Twilight 5:52 AM EDT 8:43 PM EDT
Astronomical Twilight 5:19 AM EDT 9:16 PM EDT
Moon 9:08 PM EDT (9/3) 9:53 AM EDT (9/3)
Length of Visible Light 13h 47m
Length of Day
12h 53m
Waning Gibbous, 90% of the Moon is Illuminated
Sep 3
Waning Gibbous
Sep 8
Last Quarter
Sep 15
New
Sep 22
First Quarter
Sep 29
Full

Hourly Weather History & Observations

Time (EDT) Temp. Dew Point Humidity Pressure Visibility Wind Dir Wind Speed Gust Speed Precip Events Conditions
12:05 AM 66.2 °F 66.2 °F 100% 30.19 in 0.2 mi ESE 4.6 mph - N/A   Overcast
12:39 AM 66.2 °F 66.2 °F 100% 30.18 in 0.2 mi SE 5.8 mph - N/A   Heavy Drizzle
1:04 AM 66.2 °F 66.2 °F 100% 30.18 in 0.2 mi SSE 4.6 mph - N/A   Drizzle
1:20 AM 66.2 °F 66.2 °F 100% 30.17 in 0.2 mi SSE 4.6 mph - N/A   Light Drizzle
1:38 AM 66.2 °F 66.2 °F 100% 30.17 in 0.2 mi SE 4.6 mph - N/A Fog Fog
1:57 AM 64.4 °F 64.4 °F 100% 30.17 in 0.2 mi SSE 8.1 mph - N/A Fog Fog
2:17 AM 64.4 °F 64.4 °F 100% 30.16 in 0.2 mi SSE 5.8 mph - N/A Fog Fog
2:37 AM 64.4 °F 64.4 °F 100% 30.16 in 0.2 mi SSE 5.8 mph - N/A Fog Fog
3:03 AM 64.4 °F 64.4 °F 100% 30.15 in 0.2 mi SSE 6.9 mph - N/A   Light Drizzle
3:17 AM 64.4 °F 64.4 °F 100% 30.16 in 0.2 mi South 5.8 mph - N/A   Drizzle
3:37 AM 64.4 °F 64.4 °F 100% 30.16 in 0.2 mi South 5.8 mph - N/A   Drizzle
4:00 AM 64.4 °F 64.4 °F 100% 30.15 in 0.2 mi SSE 5.8 mph - N/A Rain Rain
4:20 AM 64.4 °F 64.4 °F 100% 30.15 in 0.2 mi SW 3.5 mph - N/A   Heavy Drizzle
4:38 AM 64.4 °F 64.4 °F 100% 30.16 in 0.2 mi SSE 4.6 mph - N/A Rain Light Rain
5:02 AM 64.4 °F 64.4 °F 100% 30.16 in 0.2 mi South 5.8 mph - N/A Rain Rain
5:18 AM 64.4 °F 64.4 °F 100% 30.16 in 0.2 mi Calm Calm - N/A   Heavy Drizzle
5:37 AM 64.4 °F 64.4 °F 100% 30.17 in 0.2 mi South 8.1 mph - N/A   Light Drizzle
6:02 AM 64.4 °F 64.4 °F 100% 30.17 in 0.2 mi South 3.5 mph - N/A Fog Fog
6:37 AM 64.4 °F 64.4 °F 100% 30.17 in 0.2 mi Calm Calm - N/A   Heavy Drizzle
6:58 AM 64.4 °F 64.4 °F 100% 30.18 in 0.2 mi South 3.5 mph - N/A   Light Drizzle
7:18 AM 64.4 °F 64.4 °F 100% 30.19 in 0.2 mi SSW 3.5 mph - N/A   Drizzle
7:37 AM 64.4 °F 64.4 °F 100% 30.19 in 0.2 mi South 5.8 mph - N/A   Light Drizzle
7:58 AM 64.4 °F 64.4 °F 100% 30.19 in 0.2 mi South 3.5 mph - N/A Fog Fog
8:17 AM 64.4 °F 64.4 °F 100% 30.20 in 0.2 mi Calm Calm - N/A Rain Light Rain
8:40 AM 64.4 °F 64.4 °F 100% 30.20 in 0.2 mi Calm Calm - N/A   Heavy Drizzle
8:57 AM 64.4 °F 64.4 °F 100% 30.20 in 0.2 mi Calm Calm - N/A   Drizzle
9:17 AM 66.2 °F 66.2 °F 100% 30.20 in 0.2 mi South 4.6 mph - N/A Rain Light Rain
9:38 AM 66.2 °F 66.2 °F 100% 30.21 in 0.2 mi Calm Calm - N/A   Light Drizzle
10:02 AM 66.2 °F 66.2 °F 100% 30.21 in 0.2 mi South 5.8 mph - N/A   Light Drizzle
10:17 AM 66.2 °F 66.2 °F 100% 30.21 in 0.2 mi SSE 4.6 mph - N/A   Light Drizzle
10:37 AM 64.4 °F 64.4 °F 100% 30.21 in 0.2 mi SSE 3.5 mph - N/A   Drizzle
11:00 AM 66.2 °F 66.2 °F 100% 30.22 in 0.2 mi SSE 4.6 mph - N/A Rain Heavy Rain
11:18 AM 66.2 °F 66.2 °F 100% 30.22 in 0.2 mi South 6.9 mph - N/A   Heavy Drizzle
12:00 PM 66.2 °F 66.2 °F 100% 30.22 in 0.2 mi South 4.6 mph - N/A   Heavy Drizzle
12:18 PM 66.2 °F 66.2 °F 100% 30.22 in 0.2 mi SSE 4.6 mph - N/A   Unknown
12:57 PM 66.2 °F 66.2 °F 100% 30.22 in 0.2 mi South 8.1 mph - N/A Rain Light Rain
1:17 PM 66.2 °F 66.2 °F 100% 30.22 in 0.2 mi South 4.6 mph - N/A Rain Rain
1:40 PM 66.2 °F 66.2 °F 100% 30.22 in 0.2 mi South 4.6 mph - N/A   Drizzle
1:57 PM 66.2 °F 66.2 °F 100% 30.21 in 0.2 mi SE 3.5 mph - N/A   Drizzle
2:17 PM 66.2 °F 66.2 °F 100% 30.21 in 0.2 mi SE 5.8 mph - N/A   Drizzle
2:37 PM 66.2 °F 66.2 °F 100% 30.20 in 0.2 mi SE 3.5 mph - N/A Rain Light Rain
2:57 PM 66.2 °F 66.2 °F 100% 30.20 in 0.2 mi SE 4.6 mph - N/A Rain Rain
3:20 PM 66.2 °F 66.2 °F 100% 30.19 in 0.2 mi SSE 4.6 mph - N/A   Drizzle
3:37 PM 66.2 °F 66.2 °F 100% 30.19 in 0.2 mi ESE 5.8 mph - N/A   Heavy Drizzle
3:57 PM 66.2 °F 66.2 °F 100% 30.18 in 0.2 mi ESE 5.8 mph - N/A   Heavy Drizzle
4:17 PM 66.2 °F 66.2 °F 100% 30.18 in 0.2 mi SE 6.9 mph - N/A   Heavy Drizzle
4:37 PM 66.2 °F 66.2 °F 100% 30.18 in 0.2 mi ESE 6.9 mph - N/A   Heavy Drizzle
4:57 PM 66.2 °F 66.2 °F 100% 30.18 in 0.2 mi SSE 8.1 mph - N/A   Drizzle
5:21 PM 66.2 °F 66.2 °F 100% 30.18 in 0.2 mi SSE 5.8 mph - N/A   Light Drizzle
5:40 PM 66.2 °F 66.2 °F 100% 30.17 in 0.2 mi SE 5.8 mph - N/A   Light Drizzle
5:57 PM 66.2 °F 66.2 °F 100% 30.17 in 0.2 mi SE 5.8 mph - N/A Fog Fog
6:20 PM 66.2 °F 66.2 °F 100% 30.18 in 0.2 mi ESE 6.9 mph - N/A   Heavy Drizzle
6:40 PM 66.2 °F 66.2 °F 100% 30.18 in 0.2 mi East 6.9 mph - N/A   Heavy Drizzle
7:00 PM - - N/A% 30.17 in 0.2 mi ESE 6.9 mph - N/A   Heavy Drizzle
7:17 PM 66.2 °F 66.2 °F 100% 30.18 in 0.2 mi SE 5.8 mph - N/A   Drizzle
7:37 PM 66.2 °F 66.2 °F 100% 30.17 in 0.2 mi SE 5.8 mph - N/A   Heavy Drizzle
7:57 PM 66.2 °F 66.2 °F 100% 30.17 in 0.2 mi SE 9.2 mph - N/A   Heavy Drizzle
8:17 PM 66.2 °F 66.2 °F 100% 30.18 in 0.2 mi SSE 6.9 mph - N/A Rain Heavy Rain
8:37 PM 66.2 °F 66.2 °F 100% 30.18 in 0.2 mi SSE 10.4 mph 18.4 mph N/A   Heavy Drizzle
8:57 PM 66.2 °F 66.2 °F 100% 30.18 in 0.2 mi SE 6.9 mph - N/A   Drizzle
9:17 PM 66.2 °F 66.2 °F 100% 30.19 in 0.2 mi SSE 10.4 mph 17.3 mph N/A   Drizzle
9:43 PM 66.2 °F 66.2 °F 100% 30.20 in 0.2 mi South 11.5 mph 17.3 mph N/A   Drizzle
9:57 PM 66.2 °F 66.2 °F 100% 30.20 in 0.2 mi South 9.2 mph 18.4 mph N/A   Drizzle
10:20 PM 66.2 °F 66.2 °F 100% - 0.2 mi South 10.4 mph 17.3 mph N/A   Overcast
10:38 PM 66.2 °F 66.2 °F 100% 30.19 in 0.2 mi South 10.4 mph 16.1 mph N/A   Light Drizzle
11:00 PM 66.2 °F 66.2 °F 100% 30.19 in 0.2 mi SSE 9.2 mph - N/A   Light Drizzle
11:20 PM 66.2 °F 66.2 °F 100% 30.19 in 0.2 mi South 10.4 mph 16.1 mph N/A   Light Drizzle
11:42 PM 66.2 °F 66.2 °F 100% 30.18 in 0.2 mi SSE 10.4 mph - N/A   Light Drizzle